This demonstration page uses our WeatherBlox Daily Observations layout. Learn more.

Left ArrowRight Arrow

41.86663, -103.66717

Hourly Observations for August 1, 2021

Temp ( °F °C ) Dew Point ( °F °C ) Humidity (%) Winds ( mph kmh ) Pressure ( in mb ) Visibility ( mi km ) Precip ( " mm )
12:53 am 00:53 Clear 61 16.1 55 12.8 81 81 N N/A 30.22 1024 7 11 N/A
1:53 am 01:53 Clear 60 15.6 52 11.1 75 75 N 6 9 30.22 1024 7 11 N/A
2:53 am 02:53 Clear 59 15 53 11.7 81 81 NNE 5 7 30.22 1023 7 11 N/A
3:53 am 03:53 Clear with Mist and Fog 56 13.3 52 11.1 87 87 N N/A 30.22 1023 6 10 N/A
4:53 am 04:53 Hazy 57 13.9 51 10.6 81 81 N 5 7 30.23 1024 6 10 N/A
5:53 am 05:53 Hazy 57 13.9 51 10.6 81 81 N N/A 30.24 1024 5 8 N/A
6:53 am 06:53 Hazy 59 15 52 11.1 78 78 N N/A 30.25 1024 4 6 N/A
7:53 am 07:53 Hazy 64 17.8 53 11.7 68 68 N N/A 30.26 1025 5 8 N/A
8:53 am 08:53 Hazy 67 19.4 54 12.2 63 63 ESE 5 7 30.27 1025 5 8 N/A
9:53 am 09:53 Hazy 70 21.1 55 12.8 59 59 ESE 6 9 30.26 1025 5 8 N/A
10:53 am 10:53 Hazy 76 24.4 57 13.9 52 52 VRB 6 9 30.25 1024 5 8 N/A
11:53 am 11:53 Hazy 81 27.2 53 11.7 38 38 VRB 6 9 30.23 1024 6 10 N/A
12:53 pm 12:53 Hazy 83 28.3 50 10 32 32 SE 7 11 30.22 1023 6 10 N/A
1:53 pm 13:53 Hazy 85 29.4 46 7.8 26 26 SE 8 13 30.20 1023 6 10 N/A
2:53 pm 14:53 Sunny 86 30 45 7.2 24 24 VRB 3 6 30.18 1022 7 11 N/A
3:53 pm 15:53 Sunny 87 30.6 46 7.8 24 24 E 9 15 30.16 1021 7 11 N/A
4:53 pm 16:53 Sunny 86 30 47 8.3 26 26 ESE 8 13 30.14 1021 7 11 N/A
5:53 pm 17:53 Sunny 85 29.4 46 7.8 26 26 ESE 8 13 30.13 1020 7 11 N/A
6:53 pm 18:53 Sunny 83 28.3 50 10 32 32 ESE 7 11 30.12 1020 7 11 N/A
7:53 pm 19:53 Hazy 77 25 56 13.3 48 48 E 6 9 30.13 1020 6 10 N/A
8:53 pm 20:53 Clear 70 21.1 56 13.3 61 61 ESE 6 9 30.14 1021 7 11 N/A
9:53 pm 21:53 Hazy 66 18.9 54 12.2 65 65 E 6 9 30.16 1021 6 10 N/A
10:53 pm 22:53 Clear 65 18.3 53 11.7 66 66 E 6 9 30.15 1021 7 11 N/A
11:53 pm 23:53 Clear 63 17.2 52 11.1 68 68 E 8 13 30.14 1021 7 11 N/A

Powered by AerisWeather